Date String (YYYY-MM-DD hh:mm:ss) UTC,Instrument flags,absolute air pressure of the measurement (hPa),sample flow rate (lpm),inlet stack bypass flow (lpm),air temperature of the measurement (°C),ambient temperature measured by the external sensor (°C),aerosol sample conditioner tube jacket temperature (°C),OPC LED temperature (°C),internal box temperature (°C),relative humidity of the measurement (%),span deviation,mass concentration of particles derived from Lorenz-Mie calculation of OPC scattering (μg/m³),mass concentration of particles derived from Lorenz-Mie calculation of OPC scattering (μg/m³),mass concentration of particles derived from Lorenz-Mie calculation of OPC scattering (μg/m³)
DateTimeUTC,F1_M11,P_M11,Q1_M11,Q2_M11,T1_M11,T2_M11,T3_M11,T4_M11,T5_M11,U1_M11,ZSPAN_M11,X0_M11,X2_M11,X1_M11
2024-06-16 16:00:00,SystemResetWarning,0825.6,5.00,000.00,029.4,028.8,000.0,037.7,031.2,023.3,0000.0,0030.70,0006.52,0004.14
2024-06-16 16:01:00,SystemResetWarning,0825.6,5.00,000.00,029.5,028.9,000.0,037.7,031.3,023.2,0000.0,0029.94,0006.55,0004.15
2024-06-16 16:02:00,SystemResetWarning,0825.6,5.00,000.00,029.6,029.1,000.0,037.7,031.4,023.2,0000.0,0030.61,0006.54,0004.14
2024-06-16 16:03:00,SystemResetWarning,0825.6,5.00,000.00,029.6,029.2,000.0,037.8,031.4,023.3,0000.0,0030.08,0006.57,0004.15
2024-06-16 16:04:00,SystemResetWarning,0825.6,5.00,000.00,029.7,029.3,000.0,037.8,031.5,023.1,0000.0,0028.81,0006.65,0004.14
2024-06-16 16:05:00,SystemResetWarning,0825.6,5.01,000.00,029.8,029.3,000.0,037.8,031.5,022.8,0000.0,0029.21,0006.71,0004.14
2024-06-16 16:06:00,SystemResetWarning,0825.5,4.99,000.00,029.6,027.8,000.0,037.9,030.8,023.2,0000.0,0027.93,0006.75,0004.14
2024-06-16 16:07:00,SystemResetWarning,0825.4,5.01,000.00,029.2,025.8,000.0,037.9,029.8,024.0,0000.0,0028.00,0006.84,0004.14
2024-06-16 16:08:00,SystemResetWarning,0825.5,5.01,000.00,028.9,025.8,000.0,037.9,029.7,024.5,0000.0,0027.30,0006.88,0004.14
2024-06-16 16:09:00,SystemResetWarning,0825.5,4.99,000.00,028.9,026.3,000.0,037.8,030.0,024.4,0000.0,0027.15,0006.89,0004.15
2024-06-16 16:10:00,SystemResetWarning,0825.6,5.00,000.00,028.9,026.8,000.0,037.6,030.2,025.0,0000.0,0028.73,0006.90,0004.14
2024-06-16 16:11:00,SystemResetWarning,0825.6,5.01,000.00,028.9,027.2,000.0,037.6,030.4,025.1,0000.0,0028.44,0006.95,0004.16
2024-06-16 16:12:00,SystemResetWarning,0825.6,5.01,000.00,029.0,027.6,000.0,037.5,030.6,025.2,0000.0,0030.01,0006.95,0004.15
2024-06-16 16:13:00,SystemResetWarning,0825.5,4.99,000.00,029.1,027.9,000.0,037.5,030.8,025.2,0000.0,0030.62,0007.00,0004.15
2024-06-16 16:14:00,SystemResetWarning,0825.4,5.00,000.00,029.1,028.1,000.0,037.5,030.9,024.9,0000.0,0030.85,0007.10,0004.15
2024-06-16 16:15:00,SystemResetWarning,0825.4,5.00,000.00,029.2,028.4,000.0,037.5,031.0,025.5,0000.0,0031.87,0007.22,0004.16
2024-06-16 16:16:00,SystemResetWarning,0825.5,5.00,000.00,029.2,028.6,000.0,037.5,031.1,025.7,0000.0,0031.82,0007.23,0004.14
2024-06-16 16:17:00,SystemResetWarning,0825.6,5.00,000.00,029.3,028.7,000.0,037.5,031.1,025.7,0000.0,0031.29,0007.20,0004.12
2024-06-16 16:18:00,SystemResetWarning,0825.6,5.00,000.00,029.4,028.9,000.0,037.6,031.2,025.5,0000.0,0031.08,0007.19,0004.09
2024-06-16 16:19:00,SystemResetWarning,0825.6,5.00,000.00,029.5,029.0,000.0,037.6,031.3,025.3,0000.0,0032.79,0007.20,0004.08
2024-06-16 16:20:00,SystemResetWarning,0825.6,4.99,000.00,029.5,029.1,000.0,037.6,031.4,024.7,0000.0,0033.94,0007.40,0004.09
2024-06-16 16:21:00,SystemResetWarning,0825.6,5.00,000.00,029.6,029.2,000.0,037.7,031.4,024.4,0000.0,0033.98,0007.48,0004.08
2024-06-16 16:22:00,SystemResetWarning,0825.6,5.00,000.00,029.7,029.3,000.0,037.7,031.5,024.4,0000.0,0033.59,0007.60,0004.07
2024-06-16 16:23:00,SystemResetWarning,0825.6,4.99,000.00,029.6,028.0,000.0,037.8,030.9,024.2,0000.0,0032.15,0007.70,0004.08
2024-06-16 16:24:00,SystemResetWarning,0825.4,5.01,000.00,029.2,025.9,000.0,037.8,029.8,024.8,0000.0,0031.44,0007.68,0004.09
2024-06-16 16:25:00,SystemResetWarning,0825.4,5.01,000.00,028.9,025.8,000.0,037.8,029.7,025.1,0000.0,0032.61,0007.56,0004.11
2024-06-16 16:26:00,SystemResetWarning,0825.4,4.99,000.00,028.8,026.3,000.0,037.7,029.9,025.7,0000.0,0033.60,0007.46,0004.10
2024-06-16 16:27:00,SystemResetWarning,0825.5,4.99,000.00,028.9,026.7,000.0,037.6,030.2,026.5,0000.0,0034.50,0007.50,0004.11
2024-06-16 16:28:00,SystemResetWarning,0825.4,5.00,000.00,028.9,027.2,000.0,037.5,030.4,026.2,0000.0,0034.48,0007.52,0004.12
2024-06-16 16:29:00,SystemResetWarning,0825.5,5.01,000.00,028.9,027.5,000.0,037.5,030.6,025.6,0000.0,0035.89,0007.59,0004.15
2024-06-16 16:30:00,SystemResetWarning,0825.4,5.00,000.00,029.0,027.9,000.0,037.4,030.7,025.6,0000.0,0039.05,0007.71,0004.15
2024-06-16 16:31:00,SystemResetWarning,0825.4,4.99,000.00,029.1,028.1,000.0,037.4,030.9,025.3,0000.0,0039.60,0007.72,0004.16
2024-06-16 16:32:00,SystemResetWarning,0825.4,5.00,000.00,029.1,028.3,000.0,037.4,030.9,025.5,0000.0,0038.40,0007.72,0004.17
2024-06-16 16:33:00,SystemResetWarning,0825.4,5.01,000.00,029.2,028.5,000.0,037.5,031.0,025.0,0000.0,0039.02,0007.67,0004.18
2024-06-16 16:34:00,SystemResetWarning,0825.5,5.00,000.00,029.3,028.7,000.0,037.5,031.1,025.2,0000.0,0038.81,0007.59,0004.18
2024-06-16 16:35:00,SystemResetWarning,0825.6,5.00,000.00,029.4,028.9,000.0,037.5,031.2,024.8,0000.0,0038.54,0007.54,0004.17
2024-06-16 16:36:00,SystemResetWarning,0825.6,5.00,000.00,029.4,029.0,000.0,037.6,031.3,024.6,0000.0,0037.25,0007.65,0004.17
2024-06-16 16:37:00,SystemResetWarning,0825.5,5.00,000.00,029.5,029.1,000.0,037.6,031.4,024.7,0000.0,0036.61,0007.70,0004.17
2024-06-16 16:38:00,SystemResetWarning,0825.5,4.99,000.00,029.6,029.2,000.0,037.6,031.4,024.9,0000.0,0036.91,0007.68,0004.17
2024-06-16 16:39:00,SystemResetWarning,0825.4,4.98,000.00,029.6,028.9,000.0,037.7,031.3,025.1,0000.0,0037.07,0007.61,0004.17
2024-06-16 16:40:00,SystemResetWarning,0825.4,5.00,000.00,029.4,026.8,000.0,037.8,030.3,025.6,0000.0,0038.15,0007.54,0004.17
2024-06-16 16:41:00,SystemResetWarning,0825.4,5.01,000.00,029.0,025.6,000.0,037.8,029.7,026.2,0000.0,0034.70,0007.47,0004.17
2024-06-16 16:42:00,SystemResetWarning,0825.4,5.01,000.00,028.8,026.0,000.0,037.7,029.8,026.3,0000.0,0031.53,0007.40,0004.17
2024-06-16 16:43:00,SystemResetWarning,0825.5,5.01,000.00,028.8,026.5,000.0,037.6,030.0,026.2,0000.0,0032.04,0007.37,0004.16
2024-06-16 16:44:00,SystemResetWarning,0825.5,5.00,000.00,028.8,026.9,000.0,037.5,030.3,026.5,0000.0,0033.11,0007.47,0004.15
2024-06-16 16:45:00,SystemResetWarning,0825.4,5.00,000.00,028.9,027.3,000.0,037.4,030.5,026.8,0000.0,0034.17,0007.55,0004.15
2024-06-16 16:46:00,SystemResetWarning,0825.4,5.01,000.00,028.9,027.7,000.0,037.4,030.6,026.7,0000.0,0036.54,0007.64,0004.16
2024-06-16 16:47:00,SystemResetWarning,0825.4,5.00,000.00,029.0,028.0,000.0,037.4,030.7,026.9,0000.0,0038.06,0007.69,0004.14
2024-06-16 16:48:00,SystemResetWarning,0825.3,5.00,000.00,029.1,028.2,000.0,037.4,030.8,026.6,0000.0,0039.39,0007.72,0004.14
2024-06-16 16:49:00,SystemResetWarning,0825.4,5.00,000.00,029.1,028.4,000.0,037.4,031.0,026.3,0000.0,0038.02,0007.70,0004.13
2024-06-16 16:50:00,SystemResetWarning,0825.4,5.00,000.00,029.2,028.6,000.0,037.4,031.0,026.2,0000.0,0038.97,0007.80,0004.13
2024-06-16 16:51:00,SystemResetWarning,0825.4,4.99,000.00,029.3,028.7,000.0,037.5,031.1,026.2,0000.0,0038.41,0007.88,0004.12
2024-06-16 16:52:00,SystemResetWarning,0825.5,5.00,000.00,029.4,028.9,000.0,037.5,031.2,026.1,0000.0,0039.64,0007.95,0004.11
2024-06-16 16:53:00,SystemResetWarning,0825.6,5.00,000.00,029.4,029.0,000.0,037.5,031.3,024.8,0000.0,0040.08,0007.87,0004.10
2024-06-16 16:54:00,SystemResetWarning,0825.5,5.00,000.00,029.5,029.1,000.0,037.6,031.4,024.2,0000.0,0039.59,0007.81,0004.10
2024-06-16 16:55:00,SystemResetWarning,0825.5,5.00,000.00,029.6,029.2,000.0,037.6,031.4,023.7,0000.0,0038.13,0007.67,0004.11
2024-06-16 16:56:00,SystemResetWarning,0825.4,4.98,000.00,029.5,028.1,000.0,037.7,030.9,024.7,0000.0,0037.99,0007.55,0004.11
2024-06-16 16:57:00,SystemResetWarning,0825.3,5.01,000.00,029.1,026.0,000.0,037.7,029.9,025.5,0000.0,0035.85,0007.54,0004.11
2024-06-16 16:58:00,SystemResetWarning,0825.3,5.02,000.00,028.8,025.8,000.0,037.7,029.7,026.3,0000.0,0034.88,0007.48,0004.12
2024-06-16 16:59:00,SystemResetWarning,0825.3,4.99,000.00,028.8,026.3,000.0,037.6,029.9,027.0,0000.0,0033.86,0007.45,0004.12
